Location: Fours
(44.3167°N, 6.7000°E)
Time: 03:29:21
(UTC+00:00)

Cosmos 2228 Rocket - Pass Details

Date: 30 November 2020
Orbit: 618 x 652 km, 82.5° (Epoch: 24 January)

Event Time Altitude Azimuth Distance (km) Brightness Sun altitude
Rises 17:04:09 0° 152° (SSE) 2,950 6.4 -12.0°
Reaches altitude 10° 17:06:48 10° 137° (SE) 2,041 5.5 -12.4°
Maximum altitude 17:10:15 22° 87° (E) 1,416 4.3 -13.0°
Enters shadow 17:11:21 20° 66° (ENE) 1,493 4.4 -13.2°
